ITY868 LIRF-HLLM

Flight info

Callsign ITY868
Flight time 1h 27m
Altitude 35000
Route PEPIX DCT GIANO DCT SENTI DCT LPD DCT ABRAM ABRAM2B
Aircraft A320/M-SDE3FGHIRWY/LB1

Departure

Time 2026-05-07 19:21
Airport Rome–Fiumicino Leonardo da Vinci International Airport (LIRF)

Arrival

Time 2026-05-07 20:49
Airport Mitiga International Airport (HLLM)
Time Latitude Longitude Altitude Speed Heading
2026-05-07 18:53 41.79726 12.25639 15 ft 0 kts 297°
2026-05-07 19:09 41.79725 12.25643 15 ft 2 kts 297°
2026-05-07 19:09 41.79717 12.25663 17 ft 2 kts 297°
2026-05-07 19:09 41.79710 12.25682 19 ft 2 kts 297°
2026-05-07 19:09 41.79703 12.25701 18 ft 2 kts 316°
2026-05-07 19:10 41.79689 12.25713 21 ft 2 kts 350°
2026-05-07 19:10 41.79678 12.25715 20 ft 2 kts 11°
2026-05-07 19:10 41.79676 12.25714 20 ft 0 kts 12°
2026-05-07 19:15 41.79687 12.25718 21 ft 2 kts 13°
2026-05-07 19:15 41.79708 12.25724 18 ft 3 kts 11°
2026-05-07 19:15 41.79736 12.25731 18 ft 6 kts 11°
2026-05-07 19:15 41.79792 12.25759 20 ft 9 kts 25°
2026-05-07 19:16 41.79826 12.25780 22 ft 2 kts 25°
2026-05-07 19:16 41.79868 12.25816 27 ft 9 kts 32°
2026-05-07 19:16 41.79915 12.25847 24 ft 8 kts 22°
2026-05-07 19:16 41.79972 12.25880 20 ft 11 kts 26°
2026-05-07 19:17 41.80060 12.25935 13 ft 17 kts 25°
2026-05-07 19:17 41.80172 12.26004 14 ft 17 kts 25°
2026-05-07 19:17 41.80285 12.26076 15 ft 19 kts 25°
2026-05-07 19:17 41.80403 12.26149 15 ft 18 kts 24°
2026-05-07 19:18 41.80518 12.26219 16 ft 18 kts 50°
2026-05-07 19:18 41.80568 12.26374 17 ft 18 kts 71°
2026-05-07 19:18 41.80609 12.26529 16 ft 18 kts 70°
2026-05-07 19:18 41.80655 12.26694 13 ft 20 kts 70°
2026-05-07 19:19 41.80704 12.26875 9 ft 18 kts 70°
2026-05-07 19:19 41.80750 12.27020 9 ft 14 kts 46°
2026-05-07 19:19 41.80835 12.27025 10 ft 13 kts 340°
2026-05-07 19:19 41.80924 12.26976 11 ft 13 kts 338°
2026-05-07 19:20 41.80952 12.26906 12 ft 10 kts 249°
2026-05-07 19:20 41.80948 12.26894 13 ft 0 kts 246°
2026-05-07 19:21 41.80894 12.26711 11 ft 56 kts 249°
2026-05-07 19:21 41.80685 12.25926 19 ft 121 kts 250°
2026-05-07 19:21 41.80360 12.24630 89 ft 165 kts 253°
2026-05-07 19:21 41.79932 12.23216 713 ft 167 kts 251°
2026-05-07 19:22 41.79456 12.21730 1263 ft 181 kts 241°
2026-05-07 19:22 41.78593 12.20429 1866 ft 193 kts 219°
2026-05-07 19:22 41.77530 12.19306 2521 ft 197 kts 220°
2026-05-07 19:22 41.76498 12.18053 3088 ft 207 kts 224°
2026-05-07 19:23 41.75388 12.16675 3361 ft 234 kts 213°
2026-05-07 19:23 41.73787 12.15824 3668 ft 260 kts 185°
2026-05-07 19:23 41.71951 12.15841 4505 ft 265 kts 176°
2026-05-07 19:23 41.70125 12.15893 5659 ft 260 kts 179°
2026-05-07 19:24 41.68325 12.15877 6761 ft 258 kts 180°
2026-05-07 19:24 41.66491 12.16078 7452 ft 270 kts 171°
2026-05-07 19:24 41.64624 12.16504 8322 ft 274 kts 170°
2026-05-07 19:24 41.62727 12.16915 9215 ft 278 kts 172°
2026-05-07 19:25 41.60795 12.17240 10077 ft 282 kts 174°
2026-05-07 19:25 41.58770 12.17487 10464 ft 304 kts 176°
2026-05-07 19:25 41.56586 12.17669 10738 ft 327 kts 179°
2026-05-07 19:25 41.54245 12.17360 11124 ft 343 kts 191°
2026-05-07 19:26 41.51840 12.16746 11822 ft 350 kts 191°
2026-05-07 19:26 41.49468 12.16155 12574 ft 354 kts 191°
2026-05-07 19:26 41.47002 12.15549 13338 ft 358 kts 191°
2026-05-07 19:26 41.44540 12.14945 14042 ft 362 kts 191°
2026-05-07 19:27 41.42059 12.14336 14706 ft 365 kts 191°
2026-05-07 19:27 41.39545 12.13726 15366 ft 369 kts 191°
2026-05-07 19:27 41.37007 12.13111 16033 ft 372 kts 191°
2026-05-07 19:27 41.34445 12.12558 16700 ft 376 kts 187°
2026-05-07 19:28 41.31818 12.12554 17362 ft 381 kts 176°
2026-05-07 19:28 41.29204 12.13224 18025 ft 386 kts 166°
2026-05-07 19:28 41.26627 12.14314 18618 ft 390 kts 164°
2026-05-07 19:28 41.24031 12.15424 19173 ft 394 kts 164°
2026-05-07 19:29 41.21406 12.16548 19708 ft 398 kts 164°
2026-05-07 19:29 41.18762 12.17679 20234 ft 402 kts 164°
2026-05-07 19:29 41.16067 12.18707 20751 ft 404 kts 171°
2026-05-07 19:29 41.13272 12.19190 21268 ft 406 kts 177°
2026-05-07 19:30 41.10449 12.19510 21778 ft 409 kts 177°
2026-05-07 19:30 41.07599 12.19835 22297 ft 412 kts 177°
2026-05-07 19:30 41.04736 12.20164 22794 ft 415 kts 177°
2026-05-07 19:30 41.01853 12.20501 23299 ft 417 kts 177°
2026-05-07 19:31 40.98948 12.20845 23748 ft 419 kts 177°
2026-05-07 19:31 40.96042 12.21191 24148 ft 421 kts 178°
2026-05-07 19:31 40.93110 12.21540 24544 ft 423 kts 178°
2026-05-07 19:31 40.90175 12.21883 24929 ft 425 kts 178°
2026-05-07 19:32 40.87222 12.22221 25305 ft 427 kts 178°
2026-05-07 19:32 40.84251 12.22559 25673 ft 429 kts 178°
2026-05-07 19:32 40.81273 12.22898 26033 ft 431 kts 178°
2026-05-07 19:32 40.78275 12.23240 26383 ft 433 kts 179°
2026-05-07 19:33 40.75219 12.23592 26726 ft 436 kts 179°
2026-05-07 19:33 40.72198 12.23943 27061 ft 438 kts 179°
2026-05-07 19:33 40.69151 12.24296 27381 ft 440 kts 179°
2026-05-07 19:33 40.66093 12.24648 27686 ft 442 kts 179°
2026-05-07 19:34 40.63020 12.25001 27986 ft 445 kts 179°
2026-05-07 19:34 40.59931 12.25354 28272 ft 447 kts 179°
2026-05-07 19:34 40.56824 12.25711 28553 ft 449 kts 179°
2026-05-07 19:34 40.53704 12.26072 28831 ft 451 kts 179°
2026-05-07 19:35 40.50579 12.26431 29089 ft 452 kts 179°
2026-05-07 19:35 40.47439 12.26792 29338 ft 454 kts 180°
2026-05-07 19:35 40.44291 12.27152 29613 ft 454 kts 180°
2026-05-07 19:35 40.41152 12.27513 29963 ft 453 kts 180°
2026-05-07 19:36 40.38016 12.27875 30272 ft 451 kts 180°
2026-05-07 19:36 40.34898 12.28234 30584 ft 449 kts 180°
2026-05-07 19:36 40.31786 12.28590 30902 ft 447 kts 181°
2026-05-07 19:36 40.28694 12.28941 31221 ft 446 kts 181°
2026-05-07 19:37 40.25611 12.29290 31547 ft 444 kts 181°
2026-05-07 19:37 40.22543 12.29637 31871 ft 442 kts 182°
2026-05-07 19:37 40.19483 12.29985 32197 ft 440 kts 182°
2026-05-07 19:37 40.16446 12.30331 32521 ft 438 kts 182°
2026-05-07 19:38 40.13411 12.30678 32845 ft 437 kts 182°
2026-05-07 19:38 40.10390 12.31022 33162 ft 435 kts 182°
2026-05-07 19:38 40.07381 12.31363 33483 ft 433 kts 182°
2026-05-07 19:38 40.04381 12.31701 33801 ft 432 kts 183°
2026-05-07 19:39 40.01392 12.32039 34093 ft 430 kts 183°
2026-05-07 19:39 39.98414 12.32375 34369 ft 429 kts 183°
2026-05-07 19:39 39.95441 12.32710 34655 ft 427 kts 184°
2026-05-07 19:39 39.93441 12.32934 34832 ft 427 kts 184°
2026-05-07 19:40 39.86548 12.33707 34936 ft 425 kts 184°
2026-05-07 19:40 39.80653 12.34370 34936 ft 424 kts 184°
2026-05-07 19:41 39.74769 12.35028 35254 ft 424 kts 184°
2026-05-07 19:41 39.71839 12.35357 35519 ft 422 kts 184°
2026-05-07 19:41 39.68919 12.35684 35783 ft 420 kts 184°
2026-05-07 19:42 39.66011 12.36009 36030 ft 418 kts 185°
2026-05-07 19:42 39.64098 12.36223 36205 ft 417 kts 185°
2026-05-07 19:42 39.61205 12.36546 36447 ft 416 kts 185°
2026-05-07 19:42 39.58330 12.36865 36680 ft 414 kts 185°
2026-05-07 19:43 39.55470 12.37182 36884 ft 413 kts 185°
2026-05-07 19:43 39.52616 12.37501 36930 ft 411 kts 185°
2026-05-07 19:43 39.46918 12.38140 36930 ft 410 kts 186°
2026-05-07 19:44 39.41240 12.38759 36928 ft 409 kts 186°
2026-05-07 19:44 39.35569 12.39392 36926 ft 409 kts 186°
2026-05-07 19:45 39.29896 12.40025 36917 ft 409 kts 186°
2026-05-07 19:45 39.24230 12.40649 36919 ft 409 kts 186°
2026-05-07 19:46 39.18528 12.41274 36917 ft 408 kts 186°
2026-05-07 19:46 39.12865 12.41886 36915 ft 408 kts 186°
2026-05-07 19:47 39.07214 12.42511 36921 ft 408 kts 186°
2026-05-07 19:47 39.01561 12.43143 36913 ft 407 kts 186°
2026-05-07 19:48 38.95918 12.43774 36918 ft 407 kts 186°
2026-05-07 19:48 38.90282 12.44386 36918 ft 406 kts 186°
2026-05-07 19:49 38.84663 12.44956 36911 ft 404 kts 187°
2026-05-07 19:49 38.79076 12.45312 36911 ft 401 kts 189°
2026-05-07 19:50 38.73502 12.45600 36903 ft 401 kts 189°
2026-05-07 19:50 38.67937 12.45917 36893 ft 400 kts 188°
2026-05-07 19:51 38.62374 12.46260 36892 ft 400 kts 188°
2026-05-07 19:51 38.56823 12.46605 36889 ft 399 kts 188°
2026-05-07 19:52 38.51293 12.46942 36899 ft 397 kts 189°
2026-05-07 19:52 38.45776 12.47274 36894 ft 396 kts 189°
2026-05-07 19:53 38.40244 12.47608 36891 ft 396 kts 189°
2026-05-07 19:53 38.34742 12.47940 36890 ft 395 kts 189°
2026-05-07 19:54 38.29257 12.48270 36884 ft 394 kts 189°
2026-05-07 19:54 38.23779 12.48607 36880 ft 394 kts 189°
2026-05-07 19:55 38.18315 12.48940 36884 ft 393 kts 189°
2026-05-07 19:55 38.12846 12.49276 36889 ft 393 kts 189°
2026-05-07 19:56 38.07389 12.49605 36896 ft 392 kts 189°
2026-05-07 19:56 38.01936 12.49930 36897 ft 392 kts 189°
2026-05-07 19:57 37.96494 12.50256 36900 ft 392 kts 189°
2026-05-07 19:57 37.91056 12.50584 36891 ft 391 kts 189°
2026-05-07 19:58 37.85616 12.50908 36891 ft 391 kts 189°
2026-05-07 19:58 37.80169 12.51233 36886 ft 392 kts 190°
2026-05-07 19:59 37.74724 12.51560 36878 ft 392 kts 190°
2026-05-07 19:59 37.69279 12.51889 36869 ft 392 kts 190°
2026-05-07 20:00 37.63826 12.52213 36867 ft 392 kts 190°
2026-05-07 20:00 37.58327 12.52534 36867 ft 393 kts 190°
2026-05-07 20:01 37.52864 12.52856 36868 ft 394 kts 190°
2026-05-07 20:01 37.47419 12.53179 36870 ft 394 kts 190°
2026-05-07 20:02 37.41897 12.53510 36870 ft 395 kts 190°
2026-05-07 20:02 37.36412 12.53836 36876 ft 395 kts 190°
2026-05-07 20:03 37.30904 12.54160 36888 ft 396 kts 190°
2026-05-07 20:03 37.25388 12.54488 36889 ft 397 kts 190°
2026-05-07 20:04 37.19866 12.54812 36889 ft 398 kts 189°
2026-05-07 20:04 37.14332 12.55128 36889 ft 398 kts 190°
2026-05-07 20:05 37.08788 12.55401 36890 ft 399 kts 190°
2026-05-07 20:05 37.03231 12.55665 36894 ft 400 kts 190°
2026-05-07 20:06 36.97664 12.55938 36895 ft 401 kts 190°
2026-05-07 20:06 36.92084 12.56213 36900 ft 402 kts 190°
2026-05-07 20:07 36.86493 12.56489 36896 ft 403 kts 190°
2026-05-07 20:07 36.80887 12.56770 36896 ft 403 kts 190°
2026-05-07 20:08 36.75275 12.57046 36905 ft 404 kts 190°
2026-05-07 20:08 36.69652 12.57319 36911 ft 405 kts 190°
2026-05-07 20:09 36.63982 12.57592 36893 ft 405 kts 190°
2026-05-07 20:10 36.55524 12.58002 36887 ft 406 kts 190°
2026-05-07 20:10 36.49864 12.58276 36894 ft 407 kts 190°
2026-05-07 20:11 36.44196 12.58552 36885 ft 408 kts 190°
2026-05-07 20:11 36.38514 12.58836 36891 ft 409 kts 190°
2026-05-07 20:12 36.32821 12.59121 36890 ft 410 kts 190°
2026-05-07 20:12 36.27117 12.59401 36892 ft 410 kts 190°
2026-05-07 20:13 36.21414 12.59670 36893 ft 411 kts 190°
2026-05-07 20:13 36.15693 12.59937 36895 ft 412 kts 189°
2026-05-07 20:14 36.09960 12.60218 36894 ft 413 kts 189°
2026-05-07 20:14 36.04217 12.60497 36895 ft 413 kts 189°
2026-05-07 20:15 35.98466 12.60771 36893 ft 414 kts 189°
2026-05-07 20:15 35.92693 12.61050 36890 ft 415 kts 189°
2026-05-07 20:16 35.87854 12.61282 36892 ft 416 kts 189°
2026-05-07 20:16 35.82065 12.61557 36897 ft 417 kts 189°
2026-05-07 20:17 35.76263 12.61839 36903 ft 418 kts 189°
2026-05-07 20:17 35.70450 12.62119 36902 ft 418 kts 189°
2026-05-07 20:18 35.64632 12.62393 36906 ft 419 kts 189°
2026-05-07 20:18 35.58799 12.62675 36907 ft 419 kts 189°
2026-05-07 20:19 35.52970 12.62953 36903 ft 420 kts 189°
2026-05-07 20:19 35.47135 12.63187 36900 ft 419 kts 190°
2026-05-07 20:20 35.41320 12.63223 36902 ft 418 kts 191°
2026-05-07 20:20 35.35506 12.63200 36902 ft 418 kts 191°
2026-05-07 20:21 35.29682 12.63207 36901 ft 419 kts 190°
2026-05-07 20:21 35.23839 12.63245 36901 ft 420 kts 190°
2026-05-07 20:22 35.17993 12.63284 36900 ft 420 kts 190°
2026-05-07 20:22 35.12141 12.63316 36900 ft 421 kts 190°
2026-05-07 20:23 35.06286 12.63350 36898 ft 421 kts 190°
2026-05-07 20:23 35.00384 12.63385 36899 ft 422 kts 190°
2026-05-07 20:24 34.94509 12.63429 36894 ft 423 kts 190°
2026-05-07 20:24 34.88621 12.63466 36896 ft 423 kts 190°
2026-05-07 20:25 34.82732 12.63498 36892 ft 424 kts 189°
2026-05-07 20:25 34.76830 12.63533 36893 ft 425 kts 189°
2026-05-07 20:26 34.70914 12.63558 36893 ft 425 kts 189°
2026-05-07 20:26 34.64988 12.63587 36624 ft 427 kts 189°
2026-05-07 20:26 34.62020 12.63607 36238 ft 426 kts 189°
2026-05-07 20:27 34.59053 12.63628 35858 ft 426 kts 189°
2026-05-07 20:27 34.56088 12.63645 35482 ft 427 kts 189°
2026-05-07 20:27 34.53120 12.63660 35114 ft 427 kts 189°
2026-05-07 20:27 34.50150 12.63674 34751 ft 427 kts 189°
2026-05-07 20:28 34.47172 12.63691 34391 ft 428 kts 188°
2026-05-07 20:28 34.44190 12.63710 34036 ft 428 kts 188°
2026-05-07 20:28 34.41206 12.63731 33660 ft 429 kts 188°
2026-05-07 20:28 34.38224 12.63750 33255 ft 430 kts 188°
2026-05-07 20:29 34.35229 12.63766 32865 ft 430 kts 188°
2026-05-07 20:29 34.32232 12.63780 32481 ft 431 kts 188°
2026-05-07 20:29 34.29230 12.63805 32096 ft 432 kts 187°
2026-05-07 20:29 34.26222 12.63843 31723 ft 433 kts 187°
2026-05-07 20:30 34.23217 12.63891 31352 ft 433 kts 187°
2026-05-07 20:30 34.20195 12.63938 30991 ft 434 kts 187°
2026-05-07 20:30 34.17133 12.63987 30622 ft 435 kts 186°
2026-05-07 20:30 34.14144 12.64033 30271 ft 435 kts 186°
2026-05-07 20:31 34.11113 12.64075 29905 ft 436 kts 186°
2026-05-07 20:31 34.08041 12.64111 29492 ft 437 kts 186°
2026-05-07 20:31 34.04992 12.64145 29079 ft 438 kts 186°
2026-05-07 20:31 34.01937 12.64178 28680 ft 440 kts 186°
2026-05-07 20:32 33.98874 12.64213 28281 ft 441 kts 186°
2026-05-07 20:32 33.95796 12.64251 27890 ft 443 kts 186°
2026-05-07 20:32 33.92708 12.64293 27510 ft 445 kts 186°
2026-05-07 20:32 33.89612 12.64338 27128 ft 444 kts 186°
2026-05-07 20:33 33.86542 12.64385 26563 ft 440 kts 186°
2026-05-07 20:33 33.83495 12.64430 25710 ft 435 kts 186°
2026-05-07 20:33 33.80485 12.64470 24900 ft 430 kts 186°
2026-05-07 20:33 33.77502 12.64507 24101 ft 427 kts 186°
2026-05-07 20:34 33.74535 12.64544 23277 ft 425 kts 186°
2026-05-07 20:34 33.71598 12.64582 22469 ft 420 kts 186°
2026-05-07 20:34 33.68696 12.64621 21738 ft 414 kts 187°
2026-05-07 20:34 33.65834 12.64661 21035 ft 409 kts 187°
2026-05-07 20:35 33.63003 12.64697 20361 ft 404 kts 187°
2026-05-07 20:35 33.60203 12.64730 19698 ft 400 kts 187°
2026-05-07 20:35 33.57440 12.64761 19070 ft 395 kts 187°
2026-05-07 20:35 33.54709 12.64796 18475 ft 391 kts 187°
2026-05-07 20:36 33.52007 12.64831 17838 ft 386 kts 187°
2026-05-07 20:36 33.49336 12.64867 17275 ft 380 kts 187°
2026-05-07 20:36 33.46711 12.64897 16717 ft 375 kts 187°
2026-05-07 20:36 33.44121 12.64910 16176 ft 370 kts 187°
2026-05-07 20:37 33.41563 12.64912 15618 ft 365 kts 187°
2026-05-07 20:37 33.39005 12.64913 15053 ft 361 kts 187°
2026-05-07 20:37 33.36500 12.64916 14479 ft 358 kts 186°
2026-05-07 20:37 33.34019 12.64917 13895 ft 355 kts 186°
2026-05-07 20:38 33.31556 12.64921 13237 ft 353 kts 186°
2026-05-07 20:38 33.29111 12.64926 12611 ft 349 kts 185°
2026-05-07 20:38 33.26690 12.64932 11974 ft 346 kts 185°
2026-05-07 20:38 33.24290 12.64941 11318 ft 344 kts 184°
2026-05-07 20:39 33.21907 12.64970 10839 ft 339 kts 180°
2026-05-07 20:39 33.19639 12.65583 10714 ft 328 kts 167°
2026-05-07 20:39 33.17526 12.66436 10595 ft 314 kts 166°
2026-05-07 20:39 33.15514 12.67287 10473 ft 300 kts 166°
2026-05-07 20:40 33.13591 12.68113 10357 ft 288 kts 165°
2026-05-07 20:40 33.11801 12.69152 10144 ft 287 kts 151°
2026-05-07 20:40 33.10303 12.70742 9924 ft 292 kts 136°
2026-05-07 20:40 33.09211 12.72802 9793 ft 298 kts 121°
2026-05-07 20:41 33.08327 12.75038 9658 ft 298 kts 121°
2026-05-07 20:41 33.07464 12.77301 9148 ft 298 kts 118°
2026-05-07 20:41 33.06681 12.79583 8604 ft 298 kts 116°
2026-05-07 20:41 33.05932 12.81891 8052 ft 298 kts 115°
2026-05-07 20:42 33.05196 12.84193 7492 ft 297 kts 114°
2026-05-07 20:42 33.04459 12.86493 6978 ft 294 kts 114°
2026-05-07 20:42 33.03754 12.88685 6796 ft 273 kts 114°
2026-05-07 20:42 33.03083 12.90754 6376 ft 265 kts 114°
2026-05-07 20:43 33.02408 12.92799 5995 ft 264 kts 114°
2026-05-07 20:43 33.01726 12.94840 5477 ft 271 kts 114°
2026-05-07 20:43 33.01025 12.96936 4840 ft 271 kts 114°
2026-05-07 20:43 33.00332 12.99016 4209 ft 269 kts 113°
2026-05-07 20:44 32.99646 13.01083 3584 ft 267 kts 112°
2026-05-07 20:44 32.98903 13.03080 3125 ft 257 kts 121°
2026-05-07 20:44 32.98020 13.04842 2896 ft 241 kts 121°
2026-05-07 20:44 32.97173 13.06553 2607 ft 239 kts 121°
2026-05-07 20:45 32.96328 13.08261 2220 ft 240 kts 120°
2026-05-07 20:45 32.95491 13.09957 1925 ft 229 kts 120°
2026-05-07 20:45 32.94721 13.11516 1977 ft 211 kts 121°
2026-05-07 20:45 32.93996 13.12983 2021 ft 200 kts 120°
2026-05-07 20:46 32.93311 13.14369 2011 ft 191 kts 120°
2026-05-07 20:46 32.92655 13.15698 1821 ft 176 kts 120°
2026-05-07 20:46 32.92049 13.16918 1723 ft 168 kts 121°
2026-05-07 20:46 32.91455 13.18113 1650 ft 164 kts 121°
2026-05-07 20:47 32.91023 13.19334 1550 ft 156 kts 104°
2026-05-07 20:47 32.90773 13.20568 1312 ft 150 kts 104°
2026-05-07 20:47 32.90531 13.21730 1083 ft 140 kts 104°
2026-05-07 20:47 32.90305 13.22835 828 ft 137 kts 101°
2026-05-07 20:48 32.90190 13.23946 576 ft 132 kts 96°
2026-05-07 20:48 32.90111 13.24658 423 ft 129 kts 99°
2026-05-07 20:48 32.89922 13.25688 269 ft 127 kts 105°
2026-05-07 20:48 32.89675 13.26695 128 ft 126 kts 109°
2026-05-07 20:49 32.89423 13.27689 43 ft 124 kts 106°
2026-05-07 20:49 32.89224 13.28527 37 ft 82 kts 104°
2026-05-07 20:49 32.89117 13.29014 36 ft 49 kts 105°
2026-05-07 20:49 32.89033 13.29370 34 ft 41 kts 105°
2026-05-07 20:50 32.89044 13.29532 35 ft 14 kts 34°
2026-05-07 20:50 32.89130 13.29565 36 ft 12 kts
2026-05-07 20:50 32.89159 13.29513 35 ft 7 kts 291°
2026-05-07 20:50 32.89175 13.29461 36 ft 6 kts 282°
2026-05-07 20:51 32.89183 13.29414 36 ft 5 kts 282°
2026-05-07 20:51 32.89198 13.29335 37 ft 13 kts 284°
2026-05-07 20:51 32.89220 13.29233 36 ft 12 kts 285°
2026-05-07 20:51 32.89242 13.29139 35 ft 12 kts 285°
2026-05-07 20:52 32.89264 13.29050 37 ft 11 kts 286°
2026-05-07 20:52 32.89284 13.28966 37 ft 10 kts 286°
2026-05-07 20:52 32.89303 13.28888 36 ft 9 kts 285°
2026-05-07 20:52 32.89319 13.28815 37 ft 9 kts 283°
2026-05-07 20:53 32.89334 13.28741 37 ft 11 kts 285°
2026-05-07 20:53 32.89361 13.28624 36 ft 18 kts 285°
2026-05-07 20:53 32.89395 13.28482 37 ft 17 kts 287°
2026-05-07 20:53 32.89435 13.28351 35 ft 16 kts 302°
2026-05-07 20:54 32.89525 13.28286 37 ft 15 kts 334°
2026-05-07 20:54 32.89621 13.28233 38 ft 16 kts 336°
2026-05-07 20:54 32.89720 13.28179 38 ft 15 kts 334°
2026-05-07 20:54 32.89810 13.28126 38 ft 14 kts 333°
2026-05-07 20:55 32.89898 13.28080 38 ft 15 kts 338°
2026-05-07 20:55 32.89999 13.28024 39 ft 16 kts 334°
2026-05-07 20:55 32.90096 13.27968 38 ft 15 kts 335°
2026-05-07 20:55 32.90187 13.27919 39 ft 14 kts 334°
2026-05-07 20:56 32.90271 13.27872 37 ft 13 kts 338°
2026-05-07 20:56 32.90355 13.27864 38 ft 12 kts 14°
2026-05-07 20:56 32.90427 13.27896 38 ft 9 kts
2026-05-07 20:56 32.90444 13.27849 39 ft 9 kts 280°
2026-05-07 20:57 32.90449 13.27759 39 ft 12 kts 274°
2026-05-07 20:57 32.90455 13.27653 39 ft 13 kts 274°
2026-05-07 20:57 32.90472 13.27558 38 ft 11 kts 306°
2026-05-07 20:57 32.90514 13.27569 39 ft 8 kts 81°
2026-05-07 20:58 32.90516 13.27587 39 ft 0 kts 89°